Flag for Canada Weather past 2 weeks in Saskatoon, Saskatchewan, Canada

Now
77 °F

Partly sunny.


Feels Like: 79 °F
Forecast: 52 / 81 °F
Wind: 8 mph from Southeast

Location: Saskatoon Weather Station

Current Time: Aug 28, 2015 at 1:38:36 PM

Latest Report: Aug 28, 2015 at 1:00 PM


Visibility: 15 mi

Pressure: 29.88 "Hg

Humidity: 51%

Dew point: 57 °F

Location of SaskatoonLocation

Historic Weather in Saskatoon — Graph

°F

Saskatoon temperature yesterday

Maximum temperature yesterday: 79 °F (at 3:00 PM)
Minimum temperature yesterday: 50 °F (at 6:00 AM)
Average temperature yesterday: 64 °F

Past Weeks' High & Low Weather Summary

 TemperatureHumidityPressure
High90 °F (Aug 13, 3:00 PM)100% (Aug 15, 11:00 AM)30.19 "Hg (Aug 15, 11:00 AM)
Low36 °F (Aug 23, 4:00 AM)33% (Aug 23, 6:00 PM)29.69 "Hg (Aug 20, 12:00 AM)
Average61 °F73%29.97 "Hg
* Reported Aug 13 12:00 Noon — Aug 28 12:00 Noon, Saskatoon, Weather by CustomWeather, © 2015

Note: Actual official high and low records may vary slightly from our data, if they occured in-between our weather recording intervals... More about our weather records

Advertising

Saskatoon weather history for previous 24 hours

 ConditionsComfort  
Time TempWeatherWind HumidityBarometerVisibility
12:00 PM
Fri, Aug 28
75 °FPartly sunny.6 mph54%29.89 "Hg15 mi
11:00 AM73 °FPartly sunny.5 mph61%29.89 "Hg15 mi
10:00 AM70 °FPartly sunny.No wind73%29.90 "Hg15 mi
9:00 AM61 °FScattered clouds.6 mph94%29.91 "Hg15 mi
8:46 AM61 °FBroken clouds.17 mph94%29.88 "Hg15 mi
8:00 AM59 °FPartly sunny.7 mph94%29.87 "Hg15 mi
7:00 AM57 °FPartly sunny.3 mph94%29.84 "Hg12 mi
6:00 AM55 °FPassing clouds.6 mph100%29.84 "Hg10 mi
5:00 AM54 °FPassing clouds.3 mph100%29.87 "Hg12 mi
4:00 AM55 °FPassing clouds.6 mph100%29.85 "Hg12 mi
3:00 AM54 °FPassing clouds.3 mph100%29.85 "Hg12 mi
2:00 AM52 °FPassing clouds.2 mph100%29.83 "Hg12 mi
1:00 AM55 °FPassing clouds.5 mph100%29.83 "Hg12 mi
12:00 AM57 °FLight fog.5 mph100%29.84 "Hg12 mi
11:00 PM
Thu, Aug 27
57 °FFog.5 mph100%29.84 "Hg12 mi
10:00 PM59 °FHigh level clouds.3 mph94%29.84 "Hg12 mi
9:00 PM61 °FHigh level clouds.3 mph88%29.84 "Hg10 mi
8:00 PM68 °FHigh level clouds.2 mph78%29.84 "Hg10 mi
7:00 PM72 °FHigh level clouds.2 mph65%29.85 "Hg10 mi
6:00 PM73 °FPartly sunny.3 mph69%29.86 "Hg12 mi
5:00 PM75 °FPartly sunny.5 mph61%29.85 "Hg12 mi
4:00 PM77 °FScattered clouds.5 mph51%29.86 "Hg12 mi
3:00 PM79 °FSunny.3 mph48%29.87 "Hg12 mi
2:00 PM77 °FSunny.2 mph51%29.89 "Hg12 mi
1:00 PM77 °FSunny.5 mph51%29.90 "Hg12 mi
Weather by CustomWeather, © 2015

See weather overviewHow to use our weather pages